Hourly Weather Goldiger Berg

Today, 7 May, Friday

Time Temperature Precipitation Wind Pressure Humidity
00:00 +8°C° 0.4 mm 3 mps 712 mmHg 95%
01:00 +7°C° 0.4 mm 3 mps 712 mmHg 95%
02:00 +7°C° 0.2 mm 3 mps 712 mmHg 95%
03:00 +7°C° 0.2 mm 3 mps 712 mmHg 95%
04:00 +7°C° 0.2 mm 3 mps 713 mmHg 95%
05:00 +7°C° 0.2 mm 3 mps 713 mmHg 94%
06:00 +6°C° 0.2 mm 4 mps 713 mmHg 93%
07:00 +7°C° 0.2 mm 4 mps 714 mmHg 92%
08:00 +6°C° 1.1 mm 4 mps 714 mmHg 93%
09:00 +6°C° 1.1 mm 4 mps 715 mmHg 95%
10:00 +5°C° 1.1 mm 4 mps 716 mmHg 96%
11:00 +5°C° 1 mm 3 mps 716 mmHg 92%
12:00 +7°C° 1 mm 3 mps 717 mmHg 88%
13:00 +7°C° 1 mm 3 mps 718 mmHg 83%
14:00 +8°C° 0.4 mm 3 mps 718 mmHg 80%
15:00 +8°C° 0.4 mm 2 mps 718 mmHg 77%
16:00 +8°C° 0.4 mm 2 mps 718 mmHg 74%
17:00 +8°C° 0.1 mm 2 mps 719 mmHg 80%
18:00 +7°C° 0.1 mm 2 mps 719 mmHg 86%
19:00 +6°C° 0.1 mm 2 mps 719 mmHg 92%
20:00 +6°C° 0 mm 1 mps 719 mmHg 93%
21:00 +5°C° 0 mm 1 mps 719 mmHg 94%
22:00 +5°C° 0 mm 1 mps 720 mmHg 95%
23:00 +4°C° 0 mm 1 mps 720 mmHg 94%

Tomorrow, 8 May, Saturday

Time Temperature Precipitation Wind Pressure Humidity
00:00 +4°C° 0 mm 1 mps 719 mmHg 94%
01:00 +4°C° 0 mm 1 mps 719 mmHg 93%
02:00 +3°C° 0 mm 1 mps 719 mmHg 93%
03:00 +3°C° 0 mm 1 mps 719 mmHg 93%
04:00 +2°C° 0 mm 1 mps 719 mmHg 93%
05:00 +4°C° 0 mm 1 mps 719 mmHg 90%
06:00 +5°C° 0 mm 1 mps 719 mmHg 87%
07:00 +5°C° 0 mm 0 mps 719 mmHg 84%
08:00 +8°C° 0 mm 0 mps 719 mmHg 74%
09:00 +10°C° 0 mm 0 mps 719 mmHg 65%
10:00 +13°C° 0 mm 0 mps 718 mmHg 55%
11:00 +15°C° 0 mm 1 mps 718 mmHg 51%
12:00 +18°C° 0 mm 1 mps 718 mmHg 47%
13:00 +19°C° 0 mm 1 mps 717 mmHg 44%
14:00 +19°C° 0 mm 2 mps 717 mmHg 44%
15:00 +19°C° 0 mm 2 mps 717 mmHg 45%
16:00 +19°C° 0 mm 2 mps 717 mmHg 46%
17:00 +18°C° 0 mm 2 mps 716 mmHg 56%
18:00 +16°C° 0 mm 2 mps 716 mmHg 67%
19:00 +14°C° 0 mm 2 mps 716 mmHg 77%
20:00 +13°C° 0 mm 2 mps 716 mmHg 78%
21:00 +10°C° 0 mm 2 mps 716 mmHg 80%
22:00 +9°C° 0 mm 2 mps 716 mmHg 81%
23:00 +8°C° 0 mm 2 mps 716 mmHg 80%

Day after tomorrow, 9 May, Sunday

Time Temperature Precipitation Wind Pressure Humidity
00:00 +8°C° 0 mm 2 mps 716 mmHg 80%
01:00 +8°C° 0 mm 2 mps 715 mmHg 79%
02:00 +7°C° 0 mm 2 mps 715 mmHg 80%
03:00 +8°C° 0 mm 1 mps 715 mmHg 81%
04:00 +7°C° 0 mm 1 mps 714 mmHg 82%
05:00 +9°C° 0 mm 1 mps 714 mmHg 78%
06:00 +10°C° 0 mm 1 mps 714 mmHg 75%
07:00 +11°C° 0 mm 1 mps 714 mmHg 72%
08:00 +14°C° 0 mm 1 mps 714 mmHg 65%
09:00 +16°C° 0 mm 1 mps 714 mmHg 58%
10:00 +20°C° 0 mm 1 mps 714 mmHg 51%
11:00 +21°C° 0 mm 1 mps 713 mmHg 49%
12:00 +23°C° 0 mm 1 mps 713 mmHg 46%
13:00 +24°C° 0 mm 2 mps 713 mmHg 43%
14:00 +24°C° 0 mm 2 mps 712 mmHg 44%
15:00 +24°C° 0 mm 2 mps 712 mmHg 44%
16:00 +24°C° 0 mm 2 mps 712 mmHg 44%
17:00 +21°C° 0 mm 2 mps 712 mmHg 54%
18:00 +19°C° 0 mm 2 mps 711 mmHg 63%
19:00 +16°C° 0 mm 2 mps 711 mmHg 73%
20:00 +15°C° 0 mm 2 mps 711 mmHg 75%
21:00 +13°C° 0 mm 2 mps 711 mmHg 77%
22:00 +10°C° 0 mm 2 mps 711 mmHg 80%
23:00 +10°C° 0 mm 2 mps 711 mmHg 80%

10 May, Monday

Time Temperature Precipitation Wind Pressure Humidity
00:00 +10°C° 0 mm 2 mps 711 mmHg 81%
01:00 +10°C° 0 mm 2 mps 711 mmHg 81%
02:00 +10°C° 0 mm 2 mps 711 mmHg 82%
03:00 +10°C° 0 mm 2 mps 711 mmHg 83%
04:00 +10°C° 0 mm 2 mps 711 mmHg 83%
05:00 +12°C° 0 mm 1 mps 712 mmHg 80%
06:00 +13°C° 0 mm 1 mps 712 mmHg 77%
07:00 +14°C° 0 mm 1 mps 713 mmHg 74%
08:00 +16°C° 0 mm 1 mps 713 mmHg 68%
09:00 +18°C° 0 mm 1 mps 713 mmHg 62%
10:00 +19°C° 0 mm 2 mps 713 mmHg 56%
11:00 +19°C° 0 mm 2 mps 713 mmHg 58%
12:00 +19°C° 0 mm 2 mps 713 mmHg 59%
13:00 +19°C° 0 mm 2 mps 713 mmHg 61%
14:00 +19°C° 0 mm 2 mps 712 mmHg 62%
15:00 +20°C° 0 mm 1 mps 712 mmHg 63%
16:00 +19°C° 0 mm 1 mps 712 mmHg 64%
17:00 +18°C° 0 mm 1 mps 711 mmHg 71%
18:00 +16°C° 0 mm 1 mps 711 mmHg 77%
19:00 +15°C° 0 mm 1 mps 711 mmHg 84%
20:00 +14°C° 0 mm 2 mps 712 mmHg 86%
21:00 +13°C° 0 mm 2 mps 712 mmHg 88%
22:00 +10°C° 0 mm 2 mps 713 mmHg 90%
23:00 +10°C° 0.1 mm 2 mps 713 mmHg 91%

11 May, Tuesday

Time Temperature Precipitation Wind Pressure Humidity
00:00 +11°C° 0.1 mm 1 mps 713 mmHg 92%
01:00 +10°C° 0.1 mm 1 mps 713 mmHg 94%
02:00 +9°C° 0 mm 0 mps 713 mmHg 94%
03:00 +9°C° 0 mm 0 mps 713 mmHg 94%
04:00 +9°C° 0 mm 0 mps 713 mmHg 94%
05:00 +10°C° 0.1 mm 1 mps 712 mmHg 94%
06:00 +11°C° 0.1 mm 1 mps 712 mmHg 93%
07:00 +11°C° 0.1 mm 1 mps 712 mmHg 93%
08:00 +12°C° 0.1 mm 1 mps 711 mmHg 87%
09:00 +14°C° 0.1 mm 2 mps 711 mmHg 80%
10:00 +15°C° 0.1 mm 2 mps 710 mmHg 74%
11:00 +16°C° 0.4 mm 2 mps 710 mmHg 75%
12:00 +16°C° 0.4 mm 2 mps 710 mmHg 75%
13:00 +16°C° 0.4 mm 2 mps 710 mmHg 76%
14:00 +15°C° 1.4 mm 2 mps 710 mmHg 83%
15:00 +14°C° 1.4 mm 2 mps 711 mmHg 89%
16:00 +12°C° 1.4 mm 1 mps 711 mmHg 95%
17:00 +12°C° 1.5 mm 1 mps 711 mmHg 96%
18:00 +12°C° 1.5 mm 1 mps 711 mmHg 96%
19:00 +10°C° 1.5 mm 0 mps 711 mmHg 97%
20:00 +11°C° 1.6 mm 1 mps 711 mmHg 97%
21:00 +10°C° 1.6 mm 1 mps 711 mmHg 97%
22:00 +10°C° 1.6 mm 1 mps 711 mmHg 97%
23:00 +9°C° 0.6 mm 1 mps 711 mmHg 97%

12 May, Wednesday

Time Temperature Precipitation Wind Pressure Humidity
00:00 +9°C° 0.6 mm 1 mps 711 mmHg 97%
01:00 +9°C° 0.6 mm 1 mps 711 mmHg 97%
02:00 +9°C° 1.2 mm 1 mps 711 mmHg 97%
03:00 +8°C° 1.2 mm 2 mps 711 mmHg 97%
04:00 +8°C° 1.2 mm 2 mps 711 mmHg 97%
05:00 +8°C° 1.7 mm 2 mps 711 mmHg 97%
06:00 +8°C° 1.7 mm 3 mps 712 mmHg 97%
07:00 +8°C° 1.7 mm 3 mps 712 mmHg 97%
08:00 +8°C° 1 mm 3 mps 712 mmHg 96%
09:00 +8°C° 1 mm 3 mps 713 mmHg 96%
10:00 +7°C° 1 mm 4 mps 713 mmHg 95%
11:00 +7°C° 0.8 mm 4 mps 714 mmHg 95%
12:00 +7°C° 0.8 mm 4 mps 714 mmHg 95%
13:00 +7°C° 0.8 mm 4 mps 715 mmHg 95%
14:00 +7°C° 0.2 mm 4 mps 715 mmHg 94%
15:00 +7°C° 0.2 mm 4 mps 715 mmHg 93%
16:00 +8°C° 0.2 mm 3 mps 715 mmHg 91%
17:00 +8°C° 0 mm 3 mps 715 mmHg 89%
18:00 +8°C° 0 mm 3 mps 715 mmHg 87%
19:00 +8°C° 0 mm 2 mps 715 mmHg 85%
20:00 +7°C° 0 mm 2 mps 715 mmHg 88%
21:00 +6°C° 0 mm 2 mps 715 mmHg 91%
22:00 +6°C° 0 mm 1 mps 716 mmHg 94%
23:00 +6°C° 0 mm 1 mps 715 mmHg 94%
Show more